Location: Detroit
(42.3310°N, 83.0460°W)
Time: 10:12:16
(UTC-04:00)

X-37B - Pass Details

Date: 24 September 2023
Orbit: 277 x 277 km, 45.0° (Epoch: 01 November)

Event Time Altitude Azimuth Distance (km) Brightness Sun altitude
Exits shadow 06:21:20 20° 299° (WNW) 718 1.5 -11.9°
Maximum altitude 06:22:47 54° 12° (NNE) 345 0.4 -11.6°
Drops below altitude 10° 06:25:11 10° 91° (E) 1,100 4.4 -11.2°
Sets 06:27:07 0° 96° (E) 1,911 5.8 -10.8°
